Weather History for Burlington, CO

Change the Weather History Date:

Wednesday, February 26, 2014

  Actual Average Record
Temperature  
Mean Temperature 22 °F 34 °F  
Max Temperature 45 °F 48 °F 72 °F (1995)
Min Temperature -1 °F 20 °F -6 °F (1960)
Degree Days  
Heating Degree Days 42    
Moisture  
Dew Point 9 °F    
Average Humidity 60    
Maximum Humidity 88    
Minimum Humidity 23    
Precipitation  
Precipitation 0.00 in 0.02 in 0.28 in (1949)
Month to date precipitation 0.10 0.38  
Year to date precipitation 0.43 0.76  
Sea Level Pressure  
Sea Level Pressure 30.19 in    
Wind  
Wind Speed 10 mph (West)    
Max Wind Speed 18 mph    
Max Gust Speed -    
Visibility 10 miles    
Events      
T = Trace of Precipitation, MM = Missing Value Source: NWS Daily Summary

Daily Weather History Graph

Daily Weather History Graph

Search for Another Location

Airport:

Trip Planner

Search our weather history database for the weather conditions in past years. The results will help you decide how hot, cold, wet, or windy it might be!

Date:

Astronomy

Feb. 26, 2014 Rise Set
Actual Time 6:26 AM MST 5:38 PM MST
Civil Twilight 5:59 AM MST 6:05 PM MST
Nautical Twilight 5:28 AM MST 6:36 PM MST
Astronomical Twilight 4:57 AM MST 7:07 PM MST
Moon 4:13 AM MST (2/26) 2:56 PM MST (2/26)
Length of Visible Light 12h 06m
Length of Day
11h 12m
Waning Crescent, 9% of the Moon is Illuminated
Feb 26
Waning Crescent
Mar 1
New
Mar 8
First Quarter
Mar 16
Full
Mar 23
Last Quarter

Hourly Weather History & Observations

Time (MST) Temp. Windchill Dew Point Humidity Pressure Visibility Wind Dir Wind Speed Gust Speed Precip Events Conditions
12:53 AM 3.9 °F -6.9 °F 1.0 °F 88% 30.49 in 10.0 mi WNW 5.8 mph - N/A   Clear
1:53 AM 1.0 °F -12.9 °F -2.9 °F 83% 30.45 in 10.0 mi SW 8.1 mph - N/A   Clear
2:53 AM 5.0 °F -10.8 °F -0.0 °F 80% 30.38 in 10.0 mi SW 11.5 mph - N/A   Clear
3:53 AM 7.0 °F -9.1 °F 1.9 °F 80% 30.33 in 10.0 mi SW 12.7 mph - N/A   Clear
4:53 AM 6.1 °F -8.7 °F 1.9 °F 83% 30.32 in 10.0 mi WSW 10.4 mph - N/A   Clear
5:53 AM 10.0 °F -8.1 °F 3.9 °F 76% 30.27 in 10.0 mi SW 18.4 mph - N/A   Clear
6:53 AM 9.0 °F -5.1 °F 3.9 °F 80% 30.26 in 10.0 mi SW 10.4 mph - N/A   Clear
7:53 AM 15.1 °F 0.5 °F 9.0 °F 77% 30.24 in 10.0 mi WSW 13.8 mph - N/A   Clear
8:53 AM 21.9 °F 8.7 °F 14.0 °F 72% 30.22 in 10.0 mi West 15.0 mph - N/A   Clear
9:53 AM 30.9 °F 21.7 °F 21.0 °F 67% 30.18 in 10.0 mi West 11.5 mph - N/A   Clear
10:53 AM 34.0 °F 26.0 °F 21.0 °F 59% 30.17 in 10.0 mi North 10.4 mph - N/A   Clear
11:53 AM 37.0 °F 28.5 °F 18.0 °F 46% 30.17 in 10.0 mi North 13.8 mph - N/A   Clear
12:53 PM 39.9 °F 32.9 °F 5.0 °F 23% 30.13 in 10.0 mi NNW 11.5 mph - N/A   Clear
1:53 PM 42.1 °F 36.6 °F 7.0 °F 24% 30.10 in 10.0 mi WNW 9.2 mph - N/A   Clear
2:53 PM 44.1 °F 37.1 °F 8.1 °F 23% 30.06 in 10.0 mi NW 15.0 mph - N/A   Clear
3:53 PM 44.1 °F 37.7 °F 8.1 °F 23% 30.05 in 10.0 mi NNW 12.7 mph - N/A   Clear
4:53 PM 39.9 °F 33.9 °F 10.0 °F 29% 30.08 in 10.0 mi North 9.2 mph - N/A   Clear
5:53 PM 33.1 °F 27.7 °F 12.0 °F 42% 30.09 in 10.0 mi NNW 5.8 mph - N/A   Clear
6:53 PM 30.9 °F 25.2 °F 10.9 °F 43% 30.12 in 10.0 mi North 5.8 mph - N/A   Clear
7:53 PM 19.9 °F 14.9 °F 12.0 °F 71% 30.14 in 10.0 mi WSW 3.5 mph - N/A   Clear
8:53 PM 19.9 °F 11.1 °F 12.0 °F 71% 30.13 in 10.0 mi WSW 6.9 mph - N/A   Clear
9:53 PM 21.0 °F 13.4 °F 10.9 °F 65% 30.08 in 10.0 mi SE 5.8 mph - N/A   Clear
10:53 PM 19.0 °F 8.2 °F 10.9 °F 71% 30.06 in 10.0 mi SW 9.2 mph - N/A   Clear
11:53 PM 19.9 °F 8.6 °F 10.9 °F 68% 30.03 in 10.0 mi SSW 10.4 mph - N/A   Clear